Overview Statistics Trail Chart Weather Telemetry Raw packets
 

This is the latest recevied weather packets stored in our database for station/object K5SVV. If no packets are shown the sender has not sent any weather packets the latest 10 day(s).

<< 31 32 33 34 35 36 37 >>
Time Temp. Humidity Pressure Rain* Wind** Luminosity Snow
1788446062 27.78° C 84% 1013.2 hPa 0 mm - 232 W/m² -
1788445757 27.78° C 85% 1013 hPa 0 mm - 173 W/m² -
1788445453 27.22° C 85% 1013.2 hPa 0 mm - 338 W/m² -
1788445148 27.22° C 85% 1013.3 hPa 0 mm - 127 W/m² -
1788444838 27.22° C 86% 1013.3 hPa 0 mm - 184 W/m² -
1788444534 26.67° C 86% 1013.3 hPa 0 mm - 268 W/m² -
1788444229 26.67° C 86% 1013.5 hPa 0 mm - 196 W/m² -
1788443924 26.67° C 87% 1013.4 hPa 0 mm - 129 W/m² -
1788443620 26.11° C 87% 1013.3 hPa 0 mm - 109 W/m² -
1788443318 26.11° C 88% 1013.2 hPa 0 mm - 187 W/m² -
1788443014 26.11° C 89% 1013.6 hPa 0 mm - 156 W/m² -
1788442711 25.56° C 89% 1013 hPa 0 mm - 147 W/m² -
1788442408 25.56° C 90% 1013 hPa 0 mm - 140 W/m² -
1788442102 25° C 91% 1013.1 hPa 0 mm - 124 W/m² -
1788441798 25° C 91% 1013.1 hPa 0 mm - 95 W/m² -
1788441493 25° C 91% 1013 hPa 0 mm - 113 W/m² -
1788441193 25° C 92% 1012.8 hPa 0 mm - 75 W/m² -
1788440887 24.44° C 92% 1012.8 hPa 0 mm - 82 W/m² -
1788440587 24.44° C 92% 1013 hPa 0 mm - 69 W/m² -
1788440285 23.89° C 92% 1013.1 hPa 0 mm - 45 W/m² -
1788439981 23.89° C 93% 1013 hPa 0 mm - 29 W/m² -
1788439680 23.89° C 93% 1013 hPa 0 mm - 17 W/m² -
1788439376 23.89° C 93% 1012.9 hPa 0 mm - 14 W/m² -
1788439074 23.89° C 93% 1012.8 hPa 0 mm - 13 W/m² -
1788438774 23.89° C 93% 1012.8 hPa 0 mm - 12 W/m² -

* Rain latest hour (hover to see other rain measurements)
** Current wind speed in m/s (hover to see current wind gust speed)